[Iaude] MPEC J156: 2024 JS3 [a=1.87,e=0.32,i=26.8,H=21.0]

mpec at cfa.harvard.edu mpec at cfa.harvard.edu
Wed May 8 09:58:19 EDT 2024


M.P.E.C. 2024-J156                                  Issued 2024 May 8, 13:56 UT

     The Minor Planet Electronic Circulars contain information on unusual
         minor planets, routine data on comets and natural satellites,
         and occasional editorial announcements.  They are published
    on behalf of Division F of the International Astronomical Union by the
          Minor Planet Center, Smithsonian Astrophysical Observatory,
                          Cambridge, MA 02138, U.S.A.
			  
             Prepared using the Tamkin Foundation Computer Network

                              MPC at CFA.HARVARD.EDU
            URL https://www.minorplanetcenter.net/    ISSN 1523-6714

                                    2024 JS3                                    


Observations:
     K24J03S* C2024 05 04.45816215 35 52.289-04 44 00.55         21.44wXEJ156F52
     K24J03S  C2024 05 04.48459315 35 48.982-04 44 41.16         21.22wXEJ156F52
     K24J03S  C2024 05 04.49775315 35 47.322-04 45 01.52         21.15wXEJ156F52
     K24J03S  C2024 05 06.48074515 31 42.987-05 37 27.39         21.48wXEJ156F52
     K24J03S  C2024 05 06.49264415 31 41.391-05 37 46.95         21.61wXEJ156F52
     K24J03S  C2024 05 06.50451415 31 39.813-05 38 06.26         21.45wXEJ156F52
     K24J03S  C2024 05 06.51640315 31 38.226-05 38 25.71         21.64wXEJ156F52
     K24J03S  C2024 05 06.56978015 31 31.149-05 39 53.00         21.72GVEJ156F51
     K24J03S  C2024 05 06.57042515 31 31.061-05 39 53.84         21.30GVEJ156F51
     K24J03S 1C2024 05 07.32682315 29 54.262-06 00 51.95         20.63GVEJ156G96
     K24J03S 1C2024 05 07.33196215 29 53.581-06 00 59.87         20.72GVEJ156G96
     K24J03S 1C2024 05 07.33708715 29 52.832-06 01 08.58         20.62GVEJ156G96
     K24J03S 1C2024 05 07.34221115 29 52.156-06 01 17.08         20.87GVEJ156G96
     K24J03S KC2024 05 07.40175415 29 44.048-06 02 57.12         20.79GVEJ156I52
     K24J03S KC2024 05 07.40356115 29 43.832-06 03 00.00         20.85GVEJ156I52
     K24J03S KC2024 05 07.40536015 29 43.573-06 03 02.88               VEJ156I52
     K24J03S  C2024 05 08.43258015 27 28.089-06 32 12.29         20.92wXEJ156F52
     K24J03S  C2024 05 08.44309115 27 26.592-06 32 30.57         21.07wXEJ156F52
     K24J03S  C2024 05 08.45361315 27 25.109-06 32 48.67         20.96wXEJ156F52
     K24J03S  C2024 05 08.46413115 27 23.627-06 33 07.09         21.24wXEJ156F52

Observer details:
F51 Pan-STARRS 1, Haleakala.  Observers J. Herman, T. Lowe, P. Minguez, A.
    Schultz, I. Smith.  Measurers K. Chambers, T. de Boer, J. Fairlamb, H.
    Gao, M. Huber, C.-C. Lin, E. Magnier, Y. Ramanjooloo, R. Wainscoat, R.
    Weryk.  1.8-m Ritchey-Chretien + CCD.
F52 Pan-STARRS 2, Haleakala.  Observers J. Herman, T. Lowe, P. Minguez, A.
    Schultz, I. Smith.  Measurers K. Chambers, T. de Boer, J. Fairlamb, H.
    Gao, M. Huber, C.-C. Lin, E. Magnier, Y. Ramanjooloo, R. Wainscoat, R.
    Weryk.  1.8-m Ritchey-Chretien + CCD.
G96 Mt. Lemmon Survey.  Observer G. J. Leonard.  Measurers T. Beuden, V. F.
    Carvajal, D. Fay, J. B. Fazekas, D. C. Fuls, A. R. Gibbs, A. D. Grauer, H.
    Groeller, J. K. Hogan, R. A. Kowalski, S. M. Larson, G. J. Leonard, D.
    Rankin, R. L. Seaman, F. C. Shelly, K. W. Wierzchos.  1.5-m reflector +
    10K CCD.
I52 Steward Observatory, Mt. Lemmon Station.  Observer H. Groeller.  Measurers
    T. Beuden, V. F. Carvajal, D. Fay, J. B. Fazekas, D. C. Fuls, A. R. Gibbs,
    A. D. Grauer, H. Groeller, J. K. Hogan, R. A. Kowalski, S. M. Larson, G.
    J. Leonard, D. Rankin, R. L. Seaman, F. C. Shelly, K. W. Wierzchos.  1.0-m
    prime focus + CCD.

Orbital elements:
2024 JS3                                                 Earth MOID = 0.4009 AU
Epoch 2024 Mar. 31.0 TT = JDT 2460400.5                 MPC                     
M 303.86883              (2000.0)            P               Q                  
n   0.38548858     Peri.  244.01882     +0.43889114     +0.81418700             
a   1.8697995      Node    57.34114     -0.57407216     +0.57950555             
e   0.3158710      Incl.   26.83846     -0.69124216     +0.03567702             
P   2.56           H   21.00          G   0.15           U   9                  
Residuals in seconds of arc
240504 F52  0.0   0.1+    240506 F51  0.1+  0.1-    240507 I52  0.1+  0.0
240504 F52  0.1+  0.0     240506 F51  0.0   0.1+    240507 I52  0.1-  0.1+
240504 F52  0.1-  0.1-    240507 G96  0.1+  0.6-    240508 F52  0.2+  0.1+
240506 F52  0.1+  0.1+    240507 G96  0.4+  0.1+    240508 F52  0.0   0.0
240506 F52  0.0   0.1-    240507 G96  0.4-  0.0     240508 F52  0.0   0.1+
240506 F52  0.0   0.0     240507 G96  0.1-  0.1+    240508 F52  0.1-  0.1-
240506 F52  0.0   0.0     240507 I52  0.3-  0.1-

Ephemeris:
2024 JS3                 a,e,i = 1.87, 0.32, 27                  q = 1.2792
Date    TT    R. A. (2000) Decl.     Delta      r    Elong.  Phase     V
2024 04 08    16 04 59.3 +02 21 47   0.8045  1.6684   134.7    25.2    22.8
...
2024 04 23    15 54 07.8 -00 42 51   0.6542  1.6059   150.1    18.2    22.0
...
2024 05 01    15 42 20.3 -03 20 17   0.5894  1.5730   159.4    13.0    21.6
...
2024 05 07    15 30 36.7 -05 51 35   0.5498  1.5486   166.2     8.9    21.3
2024 05 08    15 28 25.8 -06 19 40   0.5440  1.5446   167.3     8.3    21.2
2024 05 09    15 26 11.3 -06 48 33   0.5385  1.5406   168.2     7.7    21.1
...
2024 05 15    15 11 36.4 -09 57 53   0.5108  1.5168   170.3     6.5    20.9
...
2024 05 23    14 50 04.2 -14 44 28   0.4889  1.4859   162.4    11.9    21.0
...
2024 06 07    14 10 08.4 -24 11 27   0.4922  1.4312   140.9    26.5    21.4

A. U. Tomatic                (C) Copyright 2024 MPC           M.P.E.C. 2024-J156





More information about the Iaude mailing list